Weather in Governador Valadares

Brazil     18°50′53″S   41°57′01″W
temp.,
°C
wind,
m/s
gust,
m/s
humid.,
%
clouds,
%
prec.,
mm/h
press.,
hPa
HPBL,
m
16 september, thu
thu1600:00+24e22560 0.0 101834
03:00+22ese12770 0.0 101868
06:00+21ese11840 0.0 102130
09:00+26e34543 0.0 10231244
12:00+31e46350 0.0 10202035
15:00+32ese56280 0.0 10172121
18:00+27se23407 0.0 101853
21:00+25e511530 0.0 1021511
17 september, fri
fri1700:00+21e26710 0.0 1022312
03:00+19ene118135 0.0 102124
06:00+19n118676 0.0 102331
09:00+23ene356096 0.0 10241298
12:00+30e46310 0.0 10202163
15:00+32e56235 0.0 10162334
18:00+27ene49342 0.0 1017255
21:00+23e484555 0.0 1020320
18 september, sat
sat1800:00+19ene136249 0.0 102076
03:00+17n117165 0.0 101912
06:00+16nne1180100 0.0 101912
09:00+23ne2350100 0.0 1020973
12:00+30ene332684 0.0 10171475
15:00+32ene331929 0.0 10131803
18:00+27ene23265 0.0 101331
21:00+24nne12425 0.0 101512
19 september, sun
sun1900:00+21nne12565 0.0 101513
03:00+20nne11685 0.0 101514
06:00+19n11755 0.0 101611
09:00+27ene12465 0.0 1017749
12:00+33ene22285 0.0 10141370
15:00+35e332319 0.0 10111795
18:00+30ese123242 0.0 101131
21:00+27ne22385 0.0 101421
20 september, mon
mon2000:00+24ne12536 0.0 101518
03:00+21e12755 0.0 101545
06:00+20e138515 0.0 1017147
09:00+26ene34545 0.0 10181136
12:00+32e34355 0.0 10151646
15:00+34ese44303 0.0 10122253
18:00+29e49421 0.0 1013333
21:00+26ene38522 0.0 1015333